OBJECT L, 62387

Orbit data source: Space-Track

You're viewing an Uncataloged Satellite

Recently launched and/or uncataloged satellites may have evolving metadata. Metadata may include but not limited to: Owner, Maufacturer, Bus, Motor, and Mission.

OBJECT L, 62387 is a satellite in LEO that was launched on Sat, 21 Dec 2024 UTC via an FALCON 9 launch vehicle from the Air Force Western Test Range (AFWTR). Unknown objects in Earth's orbit typically refer to objects detected orbiting the Earth but have not yet been identified or cataloged. These objects could be anything from previously untracked satellites, spent rocket stages, debris from satellite collisions, or even natural meteoroids temporarily captured by Earth's gravity.

Loading next visibility...
Identifier
62387, 2024-247L
Orbit
LEO
Country
Flag of TBDTBD
Related business
None
Manufacturer
Unknown
Mission
Operational Amateur Technology
Bus & Motor
Unknown
Mass
Unknown
Launch date (UTC)
2024-12-21 (1 year ago)
Launch vehicle
FALCON 9
Launch site
Air Force Western Test Range (AFWTR)
Object type
Unknown
Shape & HBR
Box, 0.1 m
Radar Cross Section
0.015 m², Small (<0.1 m²)

Expand to show TLE details & history
Last TLE update: 13 hours ago

TLE from 13 hours ago
0 OBJECT L
1 62387U 24247L   26094.00438277  .00067912  00000-0  13019-2 0  9998
2 62387  44.9908 307.7841 0008652 204.1475 155.9011 15.47153484 71974
Epoch: 2026-04-04T00:06Z
TLE epoch observation values (Epoch: 2026-04-04T00:06:18.671Z)
Latitude
Longitude
113.87592°
Altitude
430.429 km
Speed
7.652 km/s
True Right ascension
20h 31m 08s
True Declination
0° 00' 00"
Sunlit
Object was in daylight at epoch
Visualization orbit readout
Latitude
Unknown
Longitude
Unknown
Altitude
Unknown
Speed
Unknown
Apparent Right ascension
Unknown
Apparent Declination
Unknown
Sunlit
N/A
Visualization observer readout
Local Sidereal Time
19:09:56
Azimuth
Unknown
Elevation
Unknown
Doppler factor
Unknown
Orbital elements
Apogee altitude
432.57 km
Perigee altitude
420.795 km
Semi-major axis
6,804.819 km
Eccentricity
0.00087
Inclination
44.9908°
RAAN
307.7841°
Arg. of periapsis
204.1475°
True anomaly
155.94154°
Mean anomaly
155.9011°
Eccentric anomaly
155.92133°
Mean motion
3.8665 °/min
Orbital period
93.11 mins
BSTAR
0.0013019
Loading maneuver chart data...
Computing Atmospheric mass density...
Loading historical data...
Loading historical data...
Loading historical data...
Loading historical data...
Loading historical data...
Loading historical data...
Loading historical data...

Documentation

Showing up to 5 results
|